Regional Weather Roundup
Issued by NWS Cleveland, OH

Home | Current Version | Previous Version | Graphics & Text | Print | Product List | Glossary On
Versions: 1 2 3 4 5 6 7 8 9 10 11 12 13 14 15 16 17 18 19 20 21 22 23 24 25 26 27 28 29 30 31 32 33 34 35 36 37 38 39 40 41 42 43 44 45 46 47 48 49 50
000
ASUS41 KCLE 110900
RWRCLE
OHIO REGIONAL WEATHER ROUNDUP
NATIONAL WEATHER SERVICE WILMINGTON, OH
400 AM EST MON DEC 11 2017

NOTE: "FAIR" INDICATES FEW OR NO CLOUDS BELOW 12,000 FEET WITH NO
SIGNIFICANT WEATHER AND/OR OBSTRUCTIONS TO VISIBILITY.

OHZ001>008-015>018-024>027-034-035-043-044-111000-
   NORTHWEST OHIO

CITY           SKY/WX    TMP DP  RH WIND       PRES   REMARKS
DEFIANCE       CLOUDY    27  21  78 CALM      30.05S
FINDLAY        FAIR      21  15  78 SW3       30.04R
TOLEDO EXPRESS CLOUDY    24  22  91 W5        30.04R WCI  18
TOLEDO EXEC    FAIR      22  17  81 CALM      30.05R
LIMA           CLOUDY    28  23  81 NW5       30.04R WCI  23
$$

OHZ009>014-019>023-028>033-038-089-111000-
   NORTHEAST OHIO

CITY           SKY/WX    TMP DP  RH WIND       PRES   REMARKS
CLE-HOPKINS    FLURRIES  31  22  69 W8        30.03R WCI  23
CLE-LAKEFRONT  CLOUDY    32  21  64 W12       30.01R WCI  23
CUY CO. ARPT   NOT AVBL
LORAIN-ELYRIA  CLOUDY    29  17  61 NW8       30.02R WCI  21
ASHTABULA      CLOUDY    29  23  78 NW9       29.97S WCI  20
AKRON-CANTON   CLOUDY    30  20  66 W10       29.99R WCI  21
WOOSTER        NOT AVBL
MANSFIELD      CLOUDY    28  20  71 W5        30.00S WCI  23
YOUNGSTOWN     FRZ DRZL  30  21  69 W8        29.96S WCI  22
$$

OHZ042-051>053-060>062-070>072-077>081-111000-
  SOUTHWEST OHIO

CITY           SKY/WX    TMP DP  RH WIND       PRES   REMARKS
CINC-COVINGTON FAIR      28  23  81 W6        30.08S WCI  22
CINC-LUNKEN    FAIR      25  23  92 CALM      30.12S
HAMILTON       FAIR      19  16  88 CALM      30.10S
DAYTON         NOT AVBL
WRIGHT-PAT AFB CLOUDY    31  22  70 W6        30.07R WCI  25
DAYTON GENERAL CLOUDY    30  21  69 N6        30.07R WCI  24
WILMINGTON     CLOUDY    29  23  78 CALM      30.07R
$$

OHZ036-037-039>041-045>050-054>059-063>069-073>076-082>088-111000-
  CENTRAL AND SOUTHEAST OHIO

CITY           SKY/WX    TMP DP  RH WIND       PRES   REMARKS
COLUMBUS       CLOUDY    32  22  66 NW9       30.05S WCI  24
OSU AIRPORT    CLOUDY    30  23  75 NW10      30.05S WCI  21
BOLTON FIELD   NOT AVBL
RICKENBACK AFB NOT AVBL
NEWARK         CLOUDY    31  21  66 W12       30.04S WCI  22
MARION         FAIR      26  18  71 NW7       30.04R WCI  18
LANCASTER      CLOUDY    31  21  66 NW8       30.06R WCI  23
ZANESVILLE     CLOUDY    33  20  58 W8        30.04R WCI  26
NEW PHILLY     CLOUDY    31  21  66 W7        30.03R WCI  24
$$




USA.gov is the U.S. government's official web portal to all federal, state and local government web resources and services.